This demonstration page uses our WeatherBlox Daily Observations layout. Learn more.

Left ArrowRight Arrow

41.86663, -103.66717

Hourly Observations for March 24, 2018

Temp ( °F °C ) Dew Point ( °F °C ) Humidity (%) Winds ( mph kmh ) Pressure ( in mb ) Visibility ( mi km ) Precip ( " mm )
12:53 am 00:53 Clear 41 5 37 2.8 86 86 W 14 22 29.94 1014 10 16 N/A
1:53 am 01:53 Clear 39 3.9 36 2.2 89 89 NW 13 20 29.97 1015 10 16 N/A
2:53 am 02:53 Clear 36 2.2 35 1.7 97 97 NW 12 19 29.98 1015 10 16 N/A
3:53 am 03:53 Clear 35 1.7 34 1.1 96 96 NW 10 17 29.97 1015 10 16 N/A
4:53 am 04:53 Clear 34 1.1 33 0.6 97 97 NW 5 7 29.97 1015 10 16 N/A
5:53 am 05:53 Clear 31 -0.6 31 -0.6 100 100 NW 6 9 29.99 1016 10 16 N/A
6:53 am 06:53 Sunny 32 undefined 30 -1.1 92 92 N N/A 30.01 1016 10 16 N/A
7:53 am 07:53 Sunny 34 1.1 33 0.6 97 97 ENE 5 7 30.01 1016 9 14 N/A
8:53 am 08:53 Sunny 40 4.4 37 2.8 89 89 N N/A 30.00 1016 10 16 N/A
9:53 am 09:53 Sunny 45 7.2 37 2.8 74 74 SSE 3 6 29.99 1016 10 16 N/A
10:53 am 10:53 Sunny 50 10 38 3.3 63 63 SE 9 15 29.95 1014 10 16 N/A
11:53 am 11:53 Sunny 54 12.2 37 2.8 53 53 SSE 12 19 29.93 1014 10 16 N/A
12:53 pm 12:53 Sunny 58 14.4 37 2.8 46 46 SE 14 22 29.88 1012 10 16 N/A
1:53 pm 13:53 Sunny 62 16.7 35 1.7 37 37 SE 16 26 29.83 1010 10 16 N/A
2:53 pm 14:53 Sunny 63 17.2 31 -0.6 30 30 SSE 17 28 29.80 1009 10 16 N/A
3:53 pm 15:53 Sunny 64 17.8 28 -2.2 26 26 SE 21 33 29.78 1008 10 16 N/A
4:53 pm 16:53 Sunny 63 17.2 26 -3.3 25 25 SSE 17 28 29.76 1008 10 16 N/A
5:53 pm 17:53 Sunny 59 15 31 -0.6 35 35 ESE 14 22 29.77 1008 10 16 N/A
6:53 pm 18:53 Sunny 55 12.8 31 -0.6 40 40 ESE 20 31 29.77 1008 10 16 N/A
7:53 pm 19:53 Clear 52 11.1 29 -1.7 41 41 SE 22 35 29.78 1009 10 16 N/A
8:53 pm 20:53 Clear 48 8.9 32 undefined 54 54 ESE 22 35 29.78 1008 10 16 N/A
9:53 pm 21:53 Clear 45 7.2 33 0.6 63 63 SE 13 20 29.78 1009 10 16 N/A
10:53 pm 22:53 Clear 46 7.8 33 0.6 61 61 SE 23 37 29.75 1008 10 16 N/A
11:53 pm 23:53 Clear 44 6.7 34 1.1 68 68 SE 16 26 29.74 1007 10 16 N/A

Powered by AerisWeather